THOR ABLESTAR DEB, 125

Orbit data source: Space-Track

THOR ABLESTAR DEB, 125 is space debris in LEO originally from a launch on Thu, 29 Jun 1961 UTC launched from the Air Force Eastern Test Range (AFETR). Debris objects in space refer to the collection of defunct objects orbiting the Earth. Examples of debris include non-operational satellites, rocket bodies, and fragments generated from explosions, collisions, or faulty payload assembly.

Loading next visibility...
Identifier
125, 1961-015K
Orbit
LEO
Country
Flag of USUS
Related business
Manufacturer
Unknown
Mission
Spacecraft
Bus & Motor
Unknown
Mass
Unknown
Launch date (UTC)
1961-06-29 (64 years ago)
Launch vehicle
Unknown
Launch site
Air Force Eastern Test Range (AFETR)
Object type
Payload
Rocket body
Debris
Shape & HBR
Unknown shape, 0.1 m
Radar Cross Section
Small (<0.1 m²)

Expand to show TLE details & history
Last TLE update: 9 hours ago

TLE from 9 hours ago
0 THOR ABLESTAR DEB
1 00125U 61015K   25297.96096400  .00000359  00000-0  25297-3 0  9995
2 00125  66.8744 158.0764 0078876 238.9931 120.3394 14.07474455284150
Epoch: 2025-10-24T23:03Z
TLE epoch observation values (Epoch: 2025-10-24T23:03:47.289Z)
Latitude
Longitude
138.531°
Altitude
899.332 km
Speed
7.388 km/s
True Right ascension
10h 32m 18s
True Declination
0° 00' 00"
Sunlit
Object was in daylight at epoch
Visualization orbit readout
Latitude
Unknown
Longitude
Unknown
Altitude
Unknown
Speed
Unknown
Apparent Right ascension
Unknown
Apparent Declination
Unknown
Sunlit
N/A
Visualization observer readout
Local Sidereal Time
03:21:12
Azimuth
Unknown
Elevation
Unknown
Doppler factor
Unknown
Orbital elements
Apogee altitude
923.541 km
Perigee altitude
809.257 km
Semi-major axis
7,244.536 km
Eccentricity
0.00789
Inclination
66.8744°
RAAN
158.0764°
Arg. of periapsis
238.9931°
True anomaly
121.11558°
Mean anomaly
120.3394°
Eccentric anomaly
120.72788°
Mean motion
3.51988 °/min
Orbital period
102.28 mins
BSTAR
0.00025297
Loading maneuver chart data...
Computing Atmospheric mass density...

Documentation

Showing up to 5 results
|